• In Belgium
  • List of Countries
  • For 7 days
  • Water Temperature
  • Satellite Maps
  • Weather Map
  • Weather Widgets
  • user-avatar
    Login

    Hourly Weather Midoun

    Today, 21 June, Thursday

    Time Temperature Precipitation Wind Pressure Humidity
    00:00 +26°C° 0 mm 3 mps 759 mmHg 67%
    01:00 +26°C° 0 mm 2 mps 759 mmHg 68%
    02:00 +25°C° 0 mm 2 mps 759 mmHg 70%
    03:00 +25°C° 0 mm 2 mps 759 mmHg 72%
    04:00 +25°C° 0 mm 1 mps 759 mmHg 74%
    05:00 +25°C° 0 mm 1 mps 759 mmHg 72%
    06:00 +25°C° 0 mm 1 mps 759 mmHg 71%
    07:00 +26°C° 0 mm 1 mps 760 mmHg 68%
    08:00 +27°C° 0 mm 1 mps 760 mmHg 62%
    09:00 +28°C° 0 mm 1 mps 760 mmHg 56%
    10:00 +29°C° 0 mm 2 mps 760 mmHg 50%
    11:00 +30°C° 0 mm 2 mps 759 mmHg 47%
    12:00 +31°C° 0 mm 3 mps 759 mmHg 43%
    13:00 +33°C° 0 mm 3 mps 759 mmHg 39%
    14:00 +33°C° 0 mm 4 mps 759 mmHg 39%
    15:00 +33°C° 0 mm 4 mps 758 mmHg 39%
    16:00 +34°C° 0 mm 5 mps 758 mmHg 38%
    17:00 +33°C° 0 mm 5 mps 758 mmHg 42%
    18:00 +32°C° 0 mm 5 mps 758 mmHg 46%
    19:00 +30°C° 0 mm 6 mps 758 mmHg 49%
    20:00 +29°C° 0 mm 5 mps 758 mmHg 52%
    21:00 +28°C° 0 mm 4 mps 758 mmHg 55%
    22:00 +28°C° 0 mm 4 mps 759 mmHg 58%
    23:00 +27°C° 0 mm 3 mps 759 mmHg 59%

    Tomorrow, 22 June, Friday

    Time Temperature Precipitation Wind Pressure Humidity
    00:00 +27°C° 0 mm 3 mps 759 mmHg 61%
    01:00 +27°C° 0 mm 3 mps 758 mmHg 63%
    02:00 +26°C° 0 mm 3 mps 758 mmHg 64%
    03:00 +26°C° 0 mm 3 mps 758 mmHg 64%
    04:00 +26°C° 0 mm 3 mps 758 mmHg 65%
    05:00 +26°C° 0 mm 3 mps 758 mmHg 61%
    06:00 +27°C° 0 mm 3 mps 758 mmHg 57%
    07:00 +28°C° 0 mm 3 mps 758 mmHg 52%
    08:00 +29°C° 0 mm 2 mps 758 mmHg 45%
    09:00 +31°C° 0 mm 2 mps 758 mmHg 38%
    10:00 +33°C° 0 mm 1 mps 758 mmHg 31%
    11:00 +35°C° 0 mm 2 mps 758 mmHg 29%
    12:00 +36°C° 0 mm 3 mps 758 mmHg 27%
    13:00 +37°C° 0 mm 3 mps 758 mmHg 25%
    14:00 +37°C° 0 mm 4 mps 757 mmHg 26%
    15:00 +37°C° 0 mm 5 mps 757 mmHg 26%
    16:00 +37°C° 0 mm 5 mps 756 mmHg 26%
    17:00 +36°C° 0 mm 5 mps 756 mmHg 29%
    18:00 +35°C° 0 mm 6 mps 756 mmHg 31%
    19:00 +34°C° 0 mm 6 mps 756 mmHg 33%
    20:00 +33°C° 0 mm 6 mps 757 mmHg 35%
    21:00 +33°C° 0 mm 5 mps 757 mmHg 37%
    22:00 +32°C° 0 mm 5 mps 757 mmHg 39%
    23:00 +32°C° 0 mm 4 mps 757 mmHg 39%

    Day after tomorrow, 23 June, Saturday

    Time Temperature Precipitation Wind Pressure Humidity
    00:00 +30°C° 0 mm 4 mps 757 mmHg 38%
    01:00 +30°C° 0 mm 3 mps 757 mmHg 38%
    02:00 +30°C° 0 mm 3 mps 757 mmHg 38%
    03:00 +29°C° 0 mm 2 mps 757 mmHg 37%
    04:00 +29°C° 0 mm 2 mps 757 mmHg 37%
    05:00 +29°C° 0 mm 2 mps 757 mmHg 36%
    06:00 +30°C° 0 mm 2 mps 757 mmHg 35%
    07:00 +30°C° 0 mm 2 mps 757 mmHg 34%
    08:00 +32°C° 0 mm 2 mps 758 mmHg 32%
    09:00 +34°C° 0 mm 3 mps 758 mmHg 31%
    10:00 +35°C° 0 mm 3 mps 758 mmHg 30%
    11:00 +35°C° 0 mm 4 mps 758 mmHg 29%
    12:00 +36°C° 0 mm 4 mps 758 mmHg 29%
    13:00 +37°C° 0 mm 5 mps 758 mmHg 29%
    14:00 +37°C° 0 mm 5 mps 757 mmHg 29%
    15:00 +38°C° 0 mm 6 mps 757 mmHg 30%
    16:00 +38°C° 0 mm 6 mps 756 mmHg 31%
    17:00 +35°C° 0 mm 6 mps 756 mmHg 35%
    18:00 +34°C° 0 mm 6 mps 756 mmHg 40%
    19:00 +32°C° 0 mm 6 mps 756 mmHg 44%
    20:00 +32°C° 0 mm 6 mps 756 mmHg 45%
    21:00 +30°C° 0 mm 6 mps 757 mmHg 47%
    22:00 +30°C° 0 mm 5 mps 757 mmHg 48%
    23:00 +30°C° 0 mm 5 mps 757 mmHg 48%

    24 June, Sunday

    Time Temperature Precipitation Wind Pressure Humidity
    00:00 +29°C° 0 mm 4 mps 757 mmHg 48%
    01:00 +29°C° 0 mm 3 mps 757 mmHg 48%
    02:00 +29°C° 0 mm 3 mps 757 mmHg 52%
    03:00 +28°C° 0 mm 3 mps 756 mmHg 55%
    04:00 +28°C° 0 mm 3 mps 756 mmHg 59%
    05:00 +28°C° 0 mm 3 mps 756 mmHg 59%
    06:00 +28°C° 0 mm 3 mps 756 mmHg 60%
    07:00 +28°C° 0 mm 3 mps 756 mmHg 61%
    08:00 +29°C° 0 mm 3 mps 757 mmHg 55%
    09:00 +31°C° 0 mm 3 mps 757 mmHg 49%
    10:00 +33°C° 0 mm 4 mps 757 mmHg 43%
    11:00 +34°C° 0 mm 4 mps 757 mmHg 41%
    12:00 +35°C° 0 mm 4 mps 756 mmHg 39%
    13:00 +36°C° 0 mm 5 mps 756 mmHg 36%
    14:00 +36°C° 0 mm 6 mps 756 mmHg 38%
    15:00 +35°C° 0 mm 7 mps 755 mmHg 40%
    16:00 +35°C° 0 mm 7 mps 755 mmHg 42%
    17:00 +34°C° 0 mm 7 mps 755 mmHg 45%
    18:00 +32°C° 0 mm 7 mps 755 mmHg 48%
    19:00 +30°C° 0 mm 6 mps 755 mmHg 51%
    20:00 +30°C° 0 mm 6 mps 756 mmHg 53%
    21:00 +29°C° 0 mm 6 mps 756 mmHg 54%
    22:00 +29°C° 0 mm 5 mps 756 mmHg 56%
    23:00 +29°C° 0 mm 5 mps 756 mmHg 56%

    25 June, Monday

    Time Temperature Precipitation Wind Pressure Humidity
    00:00 +28°C° 0 mm 4 mps 756 mmHg 56%
    01:00 +28°C° 0 mm 4 mps 755 mmHg 56%
    02:00 +28°C° 0 mm 3 mps 755 mmHg 58%
    03:00 +27°C° 0 mm 3 mps 755 mmHg 60%
    04:00 +27°C° 0 mm 3 mps 754 mmHg 62%
    05:00 +27°C° 0 mm 3 mps 755 mmHg 62%
    06:00 +28°C° 0 mm 3 mps 755 mmHg 62%
    07:00 +28°C° 0 mm 3 mps 755 mmHg 61%
    08:00 +29°C° 0 mm 3 mps 755 mmHg 55%
    09:00 +31°C° 0 mm 3 mps 755 mmHg 49%
    10:00 +34°C° 0 mm 4 mps 755 mmHg 42%
    11:00 +35°C° 0 mm 4 mps 755 mmHg 40%
    12:00 +36°C° 0 mm 5 mps 754 mmHg 37%
    13:00 +37°C° 0 mm 5 mps 754 mmHg 35%
    14:00 +36°C° 0 mm 6 mps 753 mmHg 37%
    15:00 +36°C° 0 mm 7 mps 753 mmHg 38%
    16:00 +35°C° 0 mm 8 mps 752 mmHg 40%
    17:00 +34°C° 0 mm 8 mps 753 mmHg 44%
    18:00 +33°C° 0 mm 7 mps 753 mmHg 47%
    19:00 +30°C° 0 mm 7 mps 753 mmHg 50%
    20:00 +30°C° 0 mm 6 mps 754 mmHg 52%
    21:00 +29°C° 0 mm 6 mps 755 mmHg 54%
    22:00 +29°C° 0 mm 5 mps 755 mmHg 57%
    23:00 +28°C° 0 mm 5 mps 755 mmHg 60%

    26 June, Tuesday

    Time Temperature Precipitation Wind Pressure Humidity
    00:00 +28°C° 0 mm 5 mps 755 mmHg 64%
    01:00 +27°C° 0 mm 5 mps 755 mmHg 68%
    02:00 +27°C° 0 mm 5 mps 755 mmHg 70%
    03:00 +27°C° 0 mm 5 mps 755 mmHg 71%
    04:00 +26°C° 0 mm 5 mps 755 mmHg 73%
    05:00 +26°C° 0 mm 6 mps 755 mmHg 70%
    06:00 +27°C° 0 mm 6 mps 756 mmHg 66%
    07:00 +27°C° 0 mm 6 mps 756 mmHg 63%
    08:00 +28°C° 0 mm 6 mps 756 mmHg 57%
    09:00 +29°C° 0 mm 6 mps 756 mmHg 51%
    10:00 +30°C° 0 mm 6 mps 756 mmHg 45%
    11:00 +30°C° 0 mm 6 mps 756 mmHg 42%
    12:00 +32°C° 0 mm 6 mps 756 mmHg 39%
    13:00 +33°C° 0 mm 6 mps 756 mmHg 37%
    14:00 +33°C° 0 mm 6 mps 756 mmHg 36%
    15:00 +33°C° 0 mm 6 mps 756 mmHg 35%
    16:00 +33°C° 0 mm 6 mps 756 mmHg 34%
    17:00 +32°C° 0 mm 6 mps 756 mmHg 37%
    18:00 +30°C° 0 mm 6 mps 756 mmHg 41%
    19:00 +29°C° 0 mm 6 mps 756 mmHg 44%
    20:00 +28°C° 0 mm 5 mps 757 mmHg 49%
    21:00 +28°C° 0 mm 5 mps 757 mmHg 54%
    22:00 +27°C° 0 mm 5 mps 758 mmHg 59%
    23:00 +26°C° 0 mm 4 mps 758 mmHg 61%
    Show more